| time (UTC) | temp F | wind direction | speed MPH | gust MPH | rain 1hr in | rain 24hr in | rain mn in | humidity % | barometer mb |
| 20260507114705 | 43 | 107 | 0.0 | 1.0 | 0.00 | 0.00 | 0.00 | 92 | 1016.1 |
| 20260507114203 | 41 | 97 | 0.0 | 0.0 | 0.00 | 0.00 | 0.00 | 94 | 1015.8 |
| 20260507113700 | 40 | 111 | 1.0 | 1.0 | 0.00 | 0.00 | 0.00 | 94 | 1016.0 |
| 20260507113157 | 40 | 100 | 0.0 | 0.0 | 0.00 | 0.00 | 0.00 | 94 | 1015.9 |
| 20260507112655 | 39 | 100 | 0.0 | 0.0 | 0.00 | 0.00 | 0.00 | 94 | 1016.0 |
| 20260507112151 | 39 | 100 | 0.0 | 0.0 | 0.00 | 0.00 | 0.00 | 94 | 1016.1 |
| 20260507111649 | 39 | 100 | 0.0 | 0.0 | 0.00 | 0.00 | 0.00 | 94 | 1016.0 |
| 20260507111145 | 39 | 100 | 0.0 | 0.0 | 0.00 | 0.00 | 0.00 | 94 | 1016.0 |
| 20260507110641 | 38 | 100 | 0.0 | 0.0 | 0.00 | 0.00 | 0.00 | 94 | 1015.6 |
| 20260507110138 | 38 | 100 | 0.0 | 0.0 | 0.00 | 0.00 | 0.00 | 94 | 1015.7 |
| 20260507105635 | 38 | 100 | 0.0 | 0.0 | 0.00 | 0.00 | 0.00 | 94 | 1015.8 |
| 20260507105131 | 38 | 100 | 0.0 | 0.0 | 0.00 | 0.00 | 0.00 | 93 | 1015.7 |
| 20260507104629 | 39 | 100 | 0.0 | 0.0 | 0.00 | 0.00 | 0.00 | 93 | 1015.7 |
| 20260507104125 | 39 | 100 | 0.0 | 0.0 | 0.00 | 0.00 | 0.00 | 93 | 1015.5 |
| 20260507103621 | 39 | 100 | 0.0 | 0.0 | 0.00 | 0.00 | 0.00 | 93 | 1015.3 |
| 20260507103118 | 39 | 100 | 0.0 | 0.0 | 0.00 | 0.00 | 0.00 | 93 | 1015.2 |
| 20260507102614 | 39 | 100 | 0.0 | 0.0 | 0.00 | 0.00 | 0.00 | 93 | 1015.2 |
| 20260507102110 | 39 | 100 | 0.0 | 0.0 | 0.00 | 0.00 | 0.00 | 93 | 1015.4 |
| 20260507101607 | 39 | 100 | 0.0 | 0.0 | 0.00 | 0.00 | 0.00 | 93 | 1015.4 |
| 20260507101102 | 39 | 100 | 0.0 | 0.0 | 0.00 | 0.00 | 0.00 | 93 | 1015.6 |
| 20260507100600 | 39 | 101 | 0.0 | 0.0 | 0.00 | 0.00 | 0.00 | 93 | 1015.3 |
| 20260507100058 | 39 | 100 | 0.0 | 0.0 | 0.00 | 0.00 | 0.00 | 93 | 1015.5 |
| 20260507095556 | 39 | 100 | 0.0 | 0.0 | 0.00 | 0.00 | 0.00 | 93 | 1015.4 |
| 20260507095052 | 39 | 101 | 0.0 | 0.0 | 0.00 | 0.00 | 0.00 | 93 | 1015.4 |
| 20260507094548 | 39 | 101 | 0.0 | 0.0 | 0.00 | 0.00 | 0.00 | 93 | 1015.4 |
| 20260507094046 | 40 | 100 | 0.0 | 0.0 | 0.00 | 0.00 | 0.00 | 93 | 1015.4 |
| 20260507093543 | 40 | 101 | 0.0 | 0.0 | 0.00 | 0.00 | 0.00 | 92 | 1015.4 |
| 20260507093042 | 40 | 101 | 0.0 | 0.0 | 0.00 | 0.00 | 0.00 | 92 | 1015.2 |
| 20260507092537 | 40 | 101 | 0.0 | 0.0 | 0.00 | 0.00 | 0.00 | 92 | 1015.2 |
| 20260507092034 | 40 | 101 | 0.0 | 0.0 | 0.00 | 0.00 | 0.00 | 92 | 1015.2 |
| 20260507091531 | 40 | 101 | 0.0 | 0.0 | 0.00 | 0.00 | 0.00 | 92 | 1015.4 |
| 20260507091027 | 40 | 100 | 0.0 | 0.0 | 0.00 | 0.00 | 0.00 | 92 | 1015.0 |
| 20260507090523 | 40 | 100 | 0.0 | 0.0 | 0.00 | 0.00 | 0.00 | 92 | 1015.4 |
| 20260507090020 | 41 | 100 | 0.0 | 0.0 | 0.00 | 0.00 | 0.00 | 91 | 1015.2 |
| 20260507085517 | 41 | 100 | 0.0 | 0.0 | 0.00 | 0.00 | 0.00 | 91 | 1015.2 |
| 20260507085014 | 41 | 101 | 0.0 | 0.0 | 0.00 | 0.00 | 0.00 | 91 | 1015.2 |
| 20260507084511 | 41 | 100 | 0.0 | 0.0 | 0.00 | 0.00 | 0.00 | 91 | 1015.1 |
| 20260507084008 | 41 | 101 | 0.0 | 0.0 | 0.00 | 0.00 | 0.00 | 91 | 1015.0 |
| 20260507083504 | 41 | 101 | 0.0 | 0.0 | 0.00 | 0.00 | 0.00 | 91 | 1015.0 |
| 20260507083001 | 41 | 100 | 0.0 | 0.0 | 0.00 | 0.00 | 0.00 | 91 | 1015.0 |
| 20260507082457 | 41 | 100 | 0.0 | 0.0 | 0.00 | 0.00 | 0.00 | 91 | 1014.9 |
| 20260507081953 | 41 | 100 | 0.0 | 0.0 | 0.00 | 0.00 | 0.00 | 91 | 1015.0 |
| 20260507081449 | 41 | 100 | 0.0 | 0.0 | 0.00 | 0.00 | 0.00 | 90 | 1015.1 |
| 20260507080947 | 41 | 100 | 0.0 | 0.0 | 0.00 | 0.00 | 0.00 | 90 | 1015.0 |
| 20260507080443 | 41 | 100 | 0.0 | 0.0 | 0.00 | 0.00 | 0.00 | 89 | 1014.9 |
| 20260507075938 | 41 | 100 | 0.0 | 0.0 | 0.00 | 0.00 | 0.00 | 89 | 1015.0 |
| 20260507075435 | 41 | 101 | 0.0 | 0.0 | 0.00 | 0.00 | 0.00 | 89 | 1015.0 |
| 20260507074931 | 41 | 100 | 0.0 | 0.0 | 0.00 | 0.00 | 0.00 | 88 | 1014.8 |
| 20260507074428 | 41 | 101 | 0.0 | 0.0 | 0.00 | 0.00 | 0.00 | 88 | 1014.9 |
| 20260507073926 | 41 | 100 | 0.0 | 0.0 | 0.00 | 0.00 | 0.00 | 88 | 1014.9 |
| 20260507073422 | 41 | 101 | 0.0 | 0.0 | 0.00 | 0.00 | 0.00 | 88 | 1015.1 |
| 20260507072919 | 42 | 101 | 0.0 | 0.0 | 0.00 | 0.00 | 0.00 | 88 | 1014.9 |
| 20260507072416 | 42 | 100 | 0.0 | 0.0 | 0.00 | 0.00 | 0.00 | 88 | 1014.7 |
| 20260507071914 | 43 | 101 | 0.0 | 0.0 | 0.00 | 0.00 | 0.00 | 88 | 1014.8 |
| 20260507071411 | 43 | 101 | 0.0 | 0.0 | 0.00 | 0.00 | 0.00 | 87 | 1015.0 |
| 20260507070907 | 42 | 100 | 0.0 | 0.0 | 0.00 | 0.00 | 0.00 | 87 | 1014.7 |
| 20260507070405 | 43 | 100 | 0.0 | 0.0 | 0.00 | 0.00 | 0.00 | 87 | 1014.9 |
| 20260507065901 | 43 | 100 | 0.0 | 0.0 | 0.00 | 0.00 | 0.00 | 86 | 1014.9 |
| 20260507065358 | 42 | 100 | 0.0 | 0.0 | 0.00 | 0.00 | 0.00 | 86 | 1014.9 |
| 20260507064855 | 42 | 100 | 0.0 | 0.0 | 0.00 | 0.00 | 0.00 | 86 | 1015.0 |
| 20260507064353 | 42 | 100 | 0.0 | 0.0 | 0.00 | 0.00 | 0.00 | 86 | 1015.0 |
| 20260507063851 | 43 | 100 | 0.0 | 0.0 | 0.00 | 0.00 | 0.00 | 86 | 1015.0 |
| 20260507063348 | 43 | 100 | 0.0 | 0.0 | 0.00 | 0.00 | 0.00 | 85 | 1015.2 |
| 20260507062844 | 43 | 101 | 0.0 | 0.0 | 0.00 | 0.00 | 0.00 | 85 | 1015.4 |
| 20260507062341 | 43 | 100 | 0.0 | 0.0 | 0.00 | 0.00 | 0.00 | 85 | 1015.3 |
| 20260507061839 | 43 | 100 | 0.0 | 0.0 | 0.00 | 0.00 | 0.00 | 85 | 1015.1 |
| 20260507061337 | 43 | 100 | 0.0 | 0.0 | 0.00 | 0.00 | 0.00 | 85 | 1015.1 |
| 20260507060835 | 43 | 100 | 0.0 | 0.0 | 0.00 | 0.00 | 0.00 | 85 | 1015.0 |
| 20260507060332 | 44 | 100 | 0.0 | 0.0 | 0.00 | 0.00 | 0.00 | 84 | 1015.1 |
| 20260507055828 | 44 | 100 | 0.0 | 0.0 | 0.00 | 0.00 | 0.00 | 84 | 1015.2 |
| 20260507055323 | 44 | 100 | 0.0 | 0.0 | 0.00 | 0.00 | 0.00 | 84 | 1015.1 |
| 20260507054820 | 44 | 101 | 0.0 | 0.0 | 0.00 | 0.00 | 0.00 | 83 | 1014.9 |
| 20260507054316 | 44 | 101 | 0.0 | 0.0 | 0.00 | 0.00 | 0.00 | 83 | 1015.1 |
| 20260507053814 | 45 | 101 | 0.0 | 0.0 | 0.00 | 0.00 | 0.00 | 83 | 1015.3 |
| 20260507053312 | 45 | 101 | 0.0 | 0.0 | 0.00 | 0.00 | 0.00 | 83 | 1015.3 |
| 20260507052811 | 45 | 101 | 0.0 | 0.0 | 0.00 | 0.00 | 0.00 | 82 | 1015.2 |
| 20260507052307 | 46 | 101 | 0.0 | 0.0 | 0.00 | 0.00 | 0.00 | 82 | 1015.2 |
| 20260507051805 | 46 | 101 | 0.0 | 0.0 | 0.00 | 0.00 | 0.00 | 82 | 1015.1 |
| 20260507051302 | 46 | 101 | 0.0 | 0.0 | 0.00 | 0.00 | 0.00 | 82 | 1015.0 |
| 20260507050758 | 45 | 100 | 0.0 | 0.0 | 0.00 | 0.00 | 0.00 | 82 | 1015.0 |
| 20260507050254 | 45 | 100 | 0.0 | 0.0 | 0.00 | 0.00 | 0.00 | 82 | 1015.3 |
| 20260507045751 | 46 | 100 | 0.0 | 0.0 | 0.00 | 0.00 | 0.00 | 82 | 1015.3 |
| 20260507045247 | 46 | 100 | 0.0 | 0.0 | 0.00 | 0.00 | 0.00 | 81 | 1015.5 |
| 20260507044746 | 46 | 100 | 0.0 | 0.0 | 0.00 | 0.00 | 0.00 | 81 | 1015.5 |
| 20260507044242 | 46 | 100 | 0.0 | 0.0 | 0.00 | 0.00 | 0.00 | 80 | 1015.5 |
| 20260507043738 | 46 | 100 | 0.0 | 0.0 | 0.00 | 0.00 | 0.00 | 80 | 1015.3 |
| 20260507043235 | 46 | 100 | 0.0 | 0.0 | 0.00 | 0.00 | 0.00 | 79 | 1015.3 |
| 20260507042731 | 46 | 100 | 0.0 | 0.0 | 0.00 | 0.00 | 0.00 | 79 | 1015.3 |
| 20260507042226 | 46 | 100 | 0.0 | 0.0 | 0.00 | 0.00 | 0.00 | 79 | 1015.4 |
| 20260507041724 | 46 | 100 | 0.0 | 0.0 | 0.00 | 0.00 | 0.00 | 78 | 1015.3 |
| 20260507041220 | 46 | 100 | 0.0 | 0.0 | 0.00 | 0.00 | 0.00 | 77 | 1015.4 |
| 20260507040717 | 47 | 100 | 0.0 | 0.0 | 0.00 | 0.00 | 0.00 | 76 | 1015.3 |
| 20260507040213 | 47 | 100 | 0.0 | 0.0 | 0.00 | 0.00 | 0.00 | 75 | 1015.2 |
| 20260507035709 | 48 | 100 | 0.0 | 0.0 | 0.00 | 0.49 | 0.49 | 75 | 1015.2 |
| 20260507035205 | 48 | 100 | 0.0 | 0.0 | 0.00 | 0.49 | 0.49 | 75 | 1015.3 |
| 20260507034702 | 47 | 100 | 0.0 | 0.0 | 0.00 | 0.49 | 0.49 | 75 | 1015.2 |
| 20260507034200 | 48 | 100 | 0.0 | 0.0 | 0.00 | 0.49 | 0.49 | 76 | 1015.2 |
| 20260507033658 | 48 | 100 | 0.0 | 0.0 | 0.00 | 0.49 | 0.49 | 75 | 1015.3 |
| 20260507033155 | 49 | 100 | 0.0 | 0.0 | 0.00 | 0.49 | 0.49 | 74 | 1015.1 |
| 20260507032652 | 49 | 100 | 0.0 | 0.0 | 0.00 | 0.49 | 0.49 | 73 | 1015.3 |
| 20260507032148 | 49 | 100 | 0.0 | 0.0 | 0.00 | 0.49 | 0.49 | 74 | 1015.2 |
| 20260507031645 | 48 | 100 | 0.0 | 0.0 | 0.00 | 0.49 | 0.49 | 73 | 1015.1 |
| 20260507031141 | 48 | 100 | 0.0 | 0.0 | 0.00 | 0.49 | 0.49 | 73 | 1015.2 |
| 20260507030638 | 48 | 100 | 0.0 | 0.0 | 0.00 | 0.49 | 0.49 | 74 | 1015.3 |
| 20260507030136 | 48 | 100 | 0.0 | 0.0 | 0.00 | 0.49 | 0.49 | 74 | 1015.4 |
| 20260507025633 | 48 | 100 | 0.0 | 0.0 | 0.00 | 0.49 | 0.49 | 75 | 1015.1 |
| 20260507025130 | 48 | 100 | 0.0 | 0.0 | 0.00 | 0.49 | 0.49 | 74 | 1015.4 |
| 20260507024628 | 48 | 100 | 0.0 | 0.0 | 0.00 | 0.49 | 0.49 | 73 | 1015.2 |
| 20260507024125 | 47 | 100 | 0.0 | 0.0 | 0.00 | 0.49 | 0.49 | 73 | 1015.2 |
| 20260507023620 | 48 | 100 | 0.0 | 0.0 | 0.00 | 0.49 | 0.49 | 73 | 1015.2 |
| 20260507023118 | 48 | 100 | 0.0 | 0.0 | 0.00 | 0.49 | 0.49 | 72 | 1015.1 |
| 20260507022615 | 48 | 100 | 0.0 | 0.0 | 0.00 | 0.49 | 0.49 | 71 | 1015.1 |
| 20260507022110 | 48 | 100 | 0.0 | 0.0 | 0.00 | 0.49 | 0.49 | 70 | 1014.9 |
| 20260507021607 | 49 | 100 | 0.0 | 0.0 | 0.00 | 0.49 | 0.49 | 71 | 1015.0 |
| 20260507021103 | 49 | 100 | 0.0 | 0.0 | 0.00 | 0.49 | 0.49 | 71 | 1015.0 |
| 20260507020602 | 50 | 100 | 0.0 | 0.0 | 0.00 | 0.49 | 0.49 | 69 | 1015.2 |
| 20260507020057 | 50 | 100 | 0.0 | 0.0 | 0.00 | 0.49 | 0.49 | 67 | 1015.0 |
| 20260507015555 | 50 | 100 | 0.0 | 0.0 | 0.00 | 0.49 | 0.49 | 68 | 1015.1 |
| 20260507015047 | 50 | 100 | 0.0 | 0.0 | 0.00 | 0.49 | 0.49 | 67 | 1015.1 |
| 20260507014544 | 50 | 100 | 0.0 | 0.0 | 0.00 | 0.49 | 0.49 | 67 | 1015.2 |
| 20260507014039 | 50 | 100 | 0.0 | 0.0 | 0.00 | 0.49 | 0.49 | 68 | 1014.8 |
| 20260507013536 | 50 | 100 | 0.0 | 0.0 | 0.00 | 0.49 | 0.49 | 69 | 1014.7 |
| 20260507013033 | 50 | 100 | 0.0 | 0.0 | 0.00 | 0.49 | 0.49 | 69 | 1014.8 |
| 20260507012530 | 50 | 100 | 0.0 | 0.0 | 0.00 | 0.49 | 0.49 | 69 | 1014.4 |
| 20260507012026 | 50 | 100 | 0.0 | 0.0 | 0.00 | 0.49 | 0.49 | 69 | 1014.7 |
| 20260507011524 | 51 | 100 | 0.0 | 0.0 | 0.00 | 0.49 | 0.49 | 69 | 1014.7 |
| 20260507011020 | 51 | 100 | 0.0 | 0.0 | 0.00 | 0.49 | 0.49 | 68 | 1014.4 |
| 20260507010514 | 51 | 100 | 0.0 | 0.0 | 0.00 | 0.49 | 0.49 | 68 | 1014.1 |
| 20260507010011 | 51 | 100 | 0.0 | 0.0 | 0.00 | 0.49 | 0.49 | 66 | 1014.6 |
| 20260507005509 | 52 | 100 | 0.0 | 0.0 | 0.00 | 0.49 | 0.49 | 66 | 1014.8 |
| 20260507005005 | 52 | 100 | 0.0 | 0.0 | 0.00 | 0.49 | 0.49 | 65 | 1014.4 |
| 20260507004502 | 53 | 100 | 0.0 | 0.0 | 0.00 | 0.49 | 0.49 | 65 | 1014.4 |
| 20260507003959 | 53 | 100 | 0.0 | 0.0 | 0.00 | 0.49 | 0.49 | 65 | 1014.3 |
| 20260507003454 | 53 | 100 | 0.0 | 0.0 | 0.00 | 0.49 | 0.49 | 64 | 1014.6 |
| 20260507002949 | 53 | 100 | 0.0 | 0.0 | 0.00 | 0.49 | 0.49 | 62 | 1014.4 |
| 20260507002447 | 53 | 100 | 0.0 | 0.0 | 0.00 | 0.49 | 0.49 | 62 | 1014.2 |
| 20260507001943 | 54 | 100 | 0.0 | 0.0 | 0.00 | 0.49 | 0.49 | 64 | 1014.0 |
| 20260507001440 | 54 | 100 | 0.0 | 0.0 | 0.00 | 0.49 | 0.49 | 62 | 1014.1 |
| 20260507000938 | 55 | 100 | 0.0 | 0.0 | 0.00 | 0.49 | 0.49 | 60 | 1014.3 |
| 20260507000435 | 55 | 100 | 0.0 | 0.0 | 0.00 | 0.49 | 0.49 | 60 | 1013.8 |
| 20260506235929 | 55 | 79 | 0.0 | 0.0 | 0.00 | 0.49 | 0.49 | 61 | 1014.0 |
| 20260506235426 | 56 | 79 | 0.0 | 0.0 | 0.00 | 0.49 | 0.49 | 61 | 1013.8 |
| 20260506234916 | 56 | 74 | 0.0 | 1.0 | 0.00 | 0.49 | 0.49 | 58 | 1014.1 |
| 20260506234414 | 57 | 77 | 0.0 | 1.0 | 0.00 | 0.49 | 0.49 | 60 | 1013.9 |
| 20260506233911 | 57 | 110 | 1.0 | 1.0 | 0.00 | 0.49 | 0.49 | 57 | 1013.9 |
| 20260506233407 | 56 | 84 | 0.0 | 0.0 | 0.00 | 0.49 | 0.49 | 58 | 1014.0 |
| 20260506232904 | 57 | 98 | 0.0 | 0.0 | 0.00 | 0.49 | 0.49 | 58 | 1014.0 |
| 20260506232400 | 57 | 75 | 1.0 | 2.0 | 0.00 | 0.49 | 0.49 | 54 | 1013.9 |
| 20260506231856 | 57 | 85 | 0.0 | 0.0 | 0.00 | 0.49 | 0.49 | 54 | 1013.9 |
| 20260506231354 | 57 | 67 | 3.0 | 3.0 | 0.00 | 0.49 | 0.49 | 53 | 1013.6 |
| 20260506230851 | 56 | 80 | 0.0 | 0.0 | 0.00 | 0.49 | 0.49 | 57 | 1013.6 |
| 20260506230348 | 57 | 74 | 1.0 | 1.0 | 0.00 | 0.49 | 0.49 | 54 | 1013.5 |
| 20260506225844 | 58 | 58 | 2.0 | 3.0 | 0.00 | 0.49 | 0.49 | 52 | 1013.8 |
| 20260506225342 | 59 | 70 | 1.0 | 1.0 | 0.00 | 0.49 | 0.49 | 52 | 1013.7 |
| 20260506224838 | 59 | 76 | 1.0 | 1.0 | 0.00 | 0.49 | 0.49 | 52 | 1013.8 |
| 20260506224336 | 58 | 81 | 1.0 | 1.0 | 0.00 | 0.49 | 0.49 | 57 | 1013.6 |
| 20260506223832 | 58 | 128 | 1.0 | 1.0 | 0.00 | 0.49 | 0.49 | 54 | 1013.7 |
| 20260506223327 | 58 | 65 | 2.0 | 2.0 | 0.00 | 0.49 | 0.49 | 51 | 1013.4 |
| 20260506222825 | 58 | 75 | 0.0 | 0.0 | 0.00 | 0.49 | 0.49 | 54 | 1013.7 |
| 20260506222320 | 58 | 82 | 0.0 | 0.0 | 0.00 | 0.49 | 0.49 | 53 | 1013.8 |
| 20260506221818 | 58 | 115 | 0.0 | 0.0 | 0.00 | 0.49 | 0.49 | 52 | 1014.1 |
| 20260506221315 | 57 | 74 | 2.0 | 2.0 | 0.00 | 0.49 | 0.49 | 52 | 1013.8 |
| 20260506220813 | 57 | 121 | 0.0 | 0.0 | 0.00 | 0.49 | 0.49 | 58 | 1013.9 |
| 20260506220308 | 58 | 114 | 0.0 | 0.0 | 0.00 | 0.49 | 0.49 | 60 | 1013.9 |
| 20260506215805 | 58 | 65 | 1.0 | 2.0 | 0.00 | 0.49 | 0.49 | 52 | 1014.2 |
| 20260506215300 | 58 | 89 | 2.0 | 2.0 | 0.00 | 0.49 | 0.49 | 57 | 1013.9 |
| 20260506214756 | 58 | 76 | 0.0 | 0.0 | 0.00 | 0.49 | 0.49 | 54 | 1014.3 |
| 20260506214254 | 58 | 82 | 1.0 | 1.0 | 0.00 | 0.49 | 0.49 | 53 | 1014.1 |
| 20260506213752 | 58 | 105 | 0.0 | 0.0 | 0.00 | 0.49 | 0.49 | 55 | 1014.1 |
| 20260506213248 | 57 | 105 | 0.0 | 1.0 | 0.00 | 0.49 | 0.49 | 56 | 1014.0 |
| 20260506212746 | 58 | 121 | 2.0 | 2.0 | 0.00 | 0.49 | 0.49 | 55 | 1013.8 |
| 20260506212242 | 58 | 84 | 1.0 | 1.0 | 0.00 | 0.49 | 0.49 | 54 | 1014.0 |
| 20260506211737 | 57 | 63 | 2.0 | 2.0 | 0.00 | 0.49 | 0.49 | 57 | 1014.0 |
| 20260506211234 | 58 | 48 | 3.0 | 3.0 | 0.00 | 0.49 | 0.49 | 56 | 1014.0 |
| 20260506210731 | 59 | 101 | 0.0 | 1.0 | 0.00 | 0.49 | 0.49 | 56 | 1013.8 |
| 20260506210228 | 59 | 78 | 0.0 | 1.0 | 0.00 | 0.49 | 0.49 | 55 | 1013.8 |
| 20260506205725 | 59 | 88 | 1.0 | 1.0 | 0.00 | 0.49 | 0.49 | 52 | 1013.5 |
| 20260506205220 | 59 | 80 | 1.0 | 2.0 | 0.00 | 0.49 | 0.49 | 50 | 1013.6 |
| 20260506204717 | 59 | 84 | 1.0 | 1.0 | 0.00 | 0.49 | 0.49 | 48 | 1013.6 |
| 20260506204214 | 59 | 66 | 2.0 | 3.0 | 0.00 | 0.49 | 0.49 | 51 | 1013.8 |
| 20260506203712 | 59 | 58 | 4.0 | 5.0 | 0.00 | 0.49 | 0.49 | 49 | 1013.6 |
| 20260506203209 | 59 | 87 | 0.0 | 0.0 | 0.00 | 0.49 | 0.49 | 51 | 1013.7 |
| 20260506202707 | 59 | 60 | 2.0 | 2.0 | 0.00 | 0.49 | 0.49 | 52 | 1013.7 |
| 20260506202203 | 59 | 78 | 1.0 | 2.0 | 0.00 | 0.49 | 0.49 | 51 | 1013.9 |
| 20260506201700 | 58 | 221 | 3.0 | 3.0 | 0.00 | 0.49 | 0.49 | 50 | 1013.9 |
| 20260506201156 | 58 | 111 | 1.0 | 1.0 | 0.00 | 0.49 | 0.49 | 52 | 1013.9 |
| 20260506200653 | 58 | 97 | 0.0 | 1.0 | 0.00 | 0.49 | 0.49 | 58 | 1013.6 |
| 20260506200150 | 58 | 117 | 1.0 | 1.0 | 0.00 | 0.49 | 0.49 | 58 | 1013.6 |
| 20260506195647 | 58 | 90 | 0.0 | 0.0 | 0.00 | 0.49 | 0.49 | 62 | 1014.0 |
| 20260506195143 | 58 | 116 | 1.0 | 1.0 | 0.00 | 0.49 | 0.49 | 56 | 1013.8 |
| 20260506194641 | 58 | 79 | 1.0 | 1.0 | 0.00 | 0.49 | 0.49 | 55 | 1013.7 |
| 20260506194137 | 58 | 58 | 2.0 | 2.0 | 0.00 | 0.49 | 0.49 | 52 | 1014.0 |
| 20260506193635 | 59 | 73 | 2.0 | 2.0 | 0.00 | 0.49 | 0.49 | 50 | 1013.5 |
| 20260506193132 | 58 | 73 | 2.0 | 2.0 | 0.00 | 0.49 | 0.49 | 58 | 1013.7 |
| 20260506192628 | 58 | 208 | 3.0 | 3.0 | 0.00 | 0.49 | 0.49 | 53 | 1013.4 |
| 20260506192124 | 59 | 262 | 1.0 | 2.0 | 0.00 | 0.49 | 0.49 | 58 | 1013.5 |
| 20260506191621 | 60 | 67 | 2.0 | 2.0 | 0.00 | 0.49 | 0.49 | 54 | 1013.4 |
| 20260506191117 | 60 | 41 | 2.0 | 2.0 | 0.00 | 0.49 | 0.49 | 56 | 1013.1 |
| 20260506190615 | 60 | 82 | 1.0 | 1.0 | 0.00 | 0.49 | 0.49 | 56 | 1013.3 |
| 20260506190111 | 60 | 74 | 1.0 | 2.0 | 0.00 | 0.49 | 0.49 | 53 | 1013.2 |
| 20260506185609 | 60 | 70 | 2.0 | 3.0 | 0.00 | 0.49 | 0.49 | 50 | 1013.5 |
| 20260506185105 | 61 | 79 | 3.0 | 3.0 | 0.00 | 0.49 | 0.49 | 47 | 1013.1 |
| 20260506184602 | 60 | 69 | 2.0 | 2.0 | 0.00 | 0.49 | 0.49 | 53 | 1013.4 |
| 20260506184100 | 61 | 171 | 2.0 | 3.0 | 0.00 | 0.49 | 0.49 | 52 | 1013.2 |
| 20260506183556 | 61 | 89 | 1.0 | 1.0 | 0.00 | 0.49 | 0.49 | 52 | 1013.2 |
| 20260506183052 | 62 | 103 | 1.0 | 1.0 | 0.00 | 0.49 | 0.49 | 47 | 1013.2 |
| 20260506182550 | 62 | 273 | 3.0 | 3.0 | 0.00 | 0.49 | 0.49 | 49 | 1013.2 |
| 20260506182047 | 61 | 94 | 1.0 | 1.0 | 0.00 | 0.49 | 0.49 | 55 | 1013.3 |
| 20260506181545 | 61 | 53 | 2.0 | 3.0 | 0.00 | 0.49 | 0.49 | 50 | 1013.2 |
| 20260506181041 | 61 | 56 | 3.0 | 3.0 | 0.00 | 0.49 | 0.49 | 47 | 1013.1 |
| 20260506180538 | 61 | 132 | 2.0 | 2.0 | 0.00 | 0.49 | 0.49 | 51 | 1013.3 |
| 20260506180034 | 61 | 117 | 3.0 | 3.0 | 0.00 | 0.49 | 0.49 | 51 | 1013.2 |
| 20260506175531 | 61 | 73 | 1.0 | 2.0 | 0.00 | 0.49 | 0.49 | 50 | 1013.6 |
| 20260506175027 | 61 | 74 | 2.0 | 2.0 | 0.00 | 0.49 | 0.49 | 51 | 1013.4 |
| 20260506174526 | 60 | 108 | 1.0 | 2.0 | 0.00 | 0.49 | 0.49 | 50 | 1013.4 |
| 20260506174022 | 60 | 63 | 3.0 | 3.0 | 0.00 | 0.49 | 0.49 | 51 | 1013.6 |
| 20260506173520 | 60 | 72 | 2.0 | 2.0 | 0.00 | 0.49 | 0.49 | 55 | 1013.8 |
| 20260506173016 | 60 | 72 | 1.0 | 2.0 | 0.00 | 0.49 | 0.49 | 54 | 1013.8 |
| 20260506172514 | 59 | 62 | 1.0 | 2.0 | 0.00 | 0.49 | 0.49 | 52 | 1013.6 |
| 20260506172010 | 60 | 317 | 5.0 | 6.0 | 0.00 | 0.49 | 0.49 | 49 | 1013.5 |
| 20260506171507 | 59 | 90 | 1.0 | 2.0 | 0.00 | 0.49 | 0.49 | 60 | 1013.6 |
| 20260506171005 | 59 | 99 | 1.0 | 1.0 | 0.00 | 0.49 | 0.49 | 52 | 1013.9 |
| 20260506170501 | 59 | 74 | 2.0 | 2.0 | 0.00 | 0.49 | 0.49 | 57 | 1013.7 |
| 20260506165954 | 58 | 78 | 3.0 | 3.0 | 0.00 | 0.49 | 0.49 | 56 | 1013.8 |
| 20260506165452 | 57 | 85 | 0.0 | 1.0 | 0.00 | 0.49 | 0.49 | 56 | 1013.7 |
| 20260506164948 | 57 | 348 | 4.0 | 6.0 | 0.00 | 0.49 | 0.49 | 55 | 1014.0 |
| 20260506164444 | 57 | 345 | 3.0 | 3.0 | 0.00 | 0.49 | 0.49 | 61 | 1013.9 |
| 20260506163942 | 57 | 99 | 0.0 | 1.0 | 0.00 | 0.49 | 0.49 | 59 | 1014.0 |
| 20260506163437 | 57 | 130 | 1.0 | 2.0 | 0.00 | 0.49 | 0.49 | 57 | 1014.1 |
| 20260506162932 | 57 | 73 | 1.0 | 2.0 | 0.00 | 0.49 | 0.49 | 57 | 1013.7 |
| 20260506162430 | 57 | 45 | 5.0 | 6.0 | 0.00 | 0.49 | 0.49 | 56 | 1013.9 |
| 20260506161927 | 58 | 25 | 6.0 | 7.0 | 0.00 | 0.49 | 0.49 | 53 | 1013.9 |
| 20260506161426 | 57 | 72 | 2.0 | 2.0 | 0.00 | 0.49 | 0.49 | 62 | 1013.9 |
| 20260506160923 | 56 | 67 | 2.0 | 2.0 | 0.00 | 0.49 | 0.49 | 57 | 1013.9 |
| 20260506160420 | 56 | 45 | 5.0 | 7.0 | 0.00 | 0.49 | 0.49 | 59 | 1013.9 |
| 20260506155917 | 56 | 58 | 4.0 | 5.0 | 0.00 | 0.49 | 0.49 | 60 | 1013.9 |
| 20260506155414 | 57 | 144 | 2.0 | 2.0 | 0.00 | 0.49 | 0.49 | 64 | 1013.8 |
| 20260506153537 | 55 | 90 | 1.0 | 1.0 | 0.00 | 0.49 | 0.49 | 68 | 1013.6 |
| 20260506153034 | 54 | 149 | 1.0 | 2.0 | 0.00 | 0.49 | 0.49 | 70 | 1013.6 |
| 20260506152531 | 53 | 13 | 3.0 | 5.0 | 0.00 | 0.49 | 0.49 | 67 | 1013.6 |
| 20260506152029 | 54 | 300 | 3.0 | 5.0 | 0.00 | 0.49 | 0.49 | 67 | 1013.8 |
| 20260506151526 | 53 | 62 | 2.0 | 2.0 | 0.00 | 0.49 | 0.49 | 66 | 1014.0 |
| 20260506151023 | 53 | 82 | 1.0 | 1.0 | 0.00 | 0.49 | 0.49 | 70 | 1013.8 |
| 20260506150520 | 53 | 50 | 2.0 | 2.0 | 0.00 | 0.49 | 0.49 | 66 | 1013.7 |
| 20260506150017 | 53 | 18 | 1.0 | 2.0 | 0.00 | 0.49 | 0.49 | 70 | 1013.1 |
| 20260506145514 | 52 | 22 | 2.0 | 2.0 | 0.00 | 0.49 | 0.49 | 72 | 1013.3 |
| 20260506145011 | 52 | 242 | 3.0 | 3.0 | 0.00 | 0.49 | 0.49 | 73 | 1013.3 |
| 20260506144508 | 51 | 313 | 4.0 | 5.0 | 0.00 | 0.49 | 0.49 | 73 | 1013.3 |
| 20260506144005 | 51 | 79 | 2.0 | 2.0 | 0.00 | 0.49 | 0.49 | 74 | 1012.8 |
| 20260506143503 | 51 | 76 | 1.0 | 1.0 | 0.00 | 0.49 | 0.49 | 77 | 1013.0 |
| 20260506143001 | 51 | 51 | 3.0 | 3.0 | 0.00 | 0.49 | 0.49 | 75 | 1012.7 |
| 20260506142458 | 51 | 87 | 1.0 | 1.0 | 0.00 | 0.49 | 0.49 | 78 | 1012.5 |
| 20260506141956 | 51 | 75 | 1.0 | 1.0 | 0.00 | 0.49 | 0.49 | 80 | 1012.7 |
| 20260506141454 | 51 | 78 | 1.0 | 2.0 | 0.00 | 0.49 | 0.49 | 82 | 1012.9 |
| 20260506140952 | 50 | 58 | 1.0 | 2.0 | 0.00 | 0.49 | 0.49 | 80 | 1012.8 |
| 20260506140448 | 50 | 28 | 2.0 | 3.0 | 0.00 | 0.49 | 0.49 | 81 | 1012.6 |
| 20260506135945 | 50 | 84 | 3.0 | 3.0 | 0.00 | 0.49 | 0.49 | 80 | 1012.6 |
| 20260506135443 | 50 | 73 | 1.0 | 2.0 | 0.00 | 0.49 | 0.49 | 82 | 1012.5 |
| 20260506134938 | 49 | 82 | 0.0 | 1.0 | 0.00 | 0.49 | 0.49 | 83 | 1012.5 |
| 20260506134435 | 49 | 77 | 1.0 | 1.0 | 0.00 | 0.49 | 0.49 | 84 | 1012.5 |
| 20260506133932 | 50 | 40 | 2.0 | 2.0 | 0.00 | 0.49 | 0.49 | 84 | 1012.6 |
| 20260506133429 | 50 | 337 | 3.0 | 5.0 | 0.00 | 0.49 | 0.49 | 84 | 1012.3 |
| 20260506132926 | 48 | 51 | 1.0 | 2.0 | 0.00 | 0.49 | 0.49 | 86 | 1012.3 |
| 20260506132423 | 49 | 19 | 3.0 | 6.0 | 0.00 | 0.49 | 0.49 | 86 | 1012.3 |
| 20260506131920 | 48 | 90 | 0.0 | 0.0 | 0.00 | 0.49 | 0.49 | 88 | 1012.4 |
| 20260506131416 | 48 | 87 | 1.0 | 1.0 | 0.00 | 0.49 | 0.49 | 89 | 1012.1 |
| 20260506130913 | 48 | 71 | 1.0 | 1.0 | 0.00 | 0.49 | 0.49 | 89 | 1012.0 |
| 20260506130410 | 48 | 99 | 1.0 | 1.0 | 0.00 | 0.49 | 0.49 | 90 | 1012.0 |
| 20260506125908 | 47 | 75 | 1.0 | 2.0 | 0.00 | 0.49 | 0.49 | 90 | 1011.9 |
| 20260506125406 | 46 | 79 | 1.0 | 1.0 | 0.00 | 0.49 | 0.49 | 91 | 1012.2 |
| 20260506124904 | 46 | 101 | 1.0 | 1.0 | 0.00 | 0.49 | 0.49 | 91 | 1012.3 |
| 20260506124401 | 47 | 118 | 1.0 | 1.0 | 0.00 | 0.49 | 0.49 | 92 | 1012.3 |
| 20260506123859 | 46 | 67 | 3.0 | 5.0 | 0.00 | 0.49 | 0.49 | 92 | 1011.9 |
| 20260506123357 | 46 | 91 | 0.0 | 0.0 | 0.00 | 0.49 | 0.49 | 92 | 1011.8 |
| 20260506122854 | 46 | 90 | 0.0 | 0.0 | 0.00 | 0.49 | 0.49 | 93 | 1011.7 |
| 20260506122350 | 46 | 90 | 1.0 | 1.0 | 0.00 | 0.49 | 0.49 | 93 | 1012.2 |
| 20260506121849 | 46 | 119 | 1.0 | 1.0 | 0.00 | 0.49 | 0.49 | 94 | 1012.0 |
| 20260506121345 | 46 | 89 | 1.0 | 1.0 | 0.00 | 0.49 | 0.49 | 94 | 1011.6 |
| 20260506120842 | 46 | 100 | 0.0 | 0.0 | 0.00 | 0.49 | 0.49 | 94 | 1011.8 |
| 20260506120340 | 45 | 108 | 0.0 | 1.0 | 0.00 | 0.49 | 0.49 | 94 | 1011.5 |
| 20260506115837 | 45 | 90 | 0.0 | 1.0 | 0.00 | 0.49 | 0.49 | 94 | 1011.3 |
| 20260506115336 | 45 | 88 | 0.0 | 0.0 | 0.00 | 0.49 | 0.49 | 94 | 1011.3 |